Location: Kellogg
(38.0159°N, 90.0546°W)
Time: 15:12:59
(UTC+00:00)

ARIANE 6 FM1 Upper Stage - Pass Details

Date: 25 January 2026
Orbit: 522 x 609 km, 62.0° (Epoch: 9 February)

Event Time Altitude Azimuth Distance (km) Brightness Sun altitude
Rises 01:34:26 0° 269° (W) 2,701 7.4 -27.5°
Reaches altitude 10° 01:38:31 10° 310° (NW) 1,791 5.8 -28.3°
Maximum altitude 01:39:23 11° 322° (NW) 1,752 5.6 -28.4°
Drops below altitude 10° 01:40:16 10° 335° (NNW) 1,785 5.4 -28.6°
Enters shadow 01:40:22 10° 336° (NNW) 1,794 5.4 -28.6°
